CW3467 Sant Marti de Canals ES current weather conditions

sailwx.info

Wind from 060

Air temperature 1.7° C
Dewpoint -2.5° C

Last reported at 2015-Jan-26 23:38 UTC.
Time now 2015-Jan-27 01:06 UTC

Location: N 42°14' E 000°59'.
View on Google Maps.

See reports from other nearby stations

  
Tides and Currents Weather Stations Pressure Air Temp Water Temp Dewpoint Dewpoint Depression Visibility Wind Speed Wind Dir Waves Ship Positions
date/time (UTC)wind fromknots sea level pressurealtimeterstation pressurevisibilityair tempwater tempwave heightnotes
2015-Jan-27 00:38 031 0 gusting 1 2.2
2015-Jan-27 00:23 100 2.2
2015-Jan-27 00:08 075 1.7
2015-Jan-26 23:53 030 1.7
2015-Jan-26 23:38 060 1.7
2015-Jan-26 23:23 025 1.7
2015-Jan-26 23:08 325 2.2
2015-Jan-26 22:53 047 2.8
2015-Jan-26 22:38 015 2.2
2015-Jan-26 22:23 012 2.8
2015-Jan-26 22:08 354 1 gusting 2 2.2
2015-Jan-26 21:53 078 2.8
2015-Jan-26 21:38 087 2.8
2015-Jan-26 21:23 332 3.3
2015-Jan-26 21:08 025 2.8
2015-Jan-26 20:53 233 3.3
2015-Jan-26 20:38 226 3.9
2015-Jan-26 20:23 037 3.9
2015-Jan-26 20:08 027 0 gusting 1 3.3
2015-Jan-26 19:53 333 3.9
2015-Jan-26 19:38 046 3.9
2015-Jan-26 19:23 103 3.3
2015-Jan-26 19:08 192 3.3
2015-Jan-26 18:53 146 3.9
2015-Jan-26 18:38 036 0 gusting 2 4.4
2015-Jan-26 18:24 043 4.4
2015-Jan-26 18:08 039 3.9
2015-Jan-26 17:53 029 4.4
2015-Jan-26 17:38 029 4.4
2015-Jan-26 17:23 264 5.0
2015-Jan-26 17:08 037 0 gusting 1 5.0
2015-Jan-26 16:53 037 5.0
2015-Jan-26 16:38 354 5.0
2015-Jan-26 16:23 329 5.6
2015-Jan-26 16:08 041 5.0
2015-Jan-26 15:53 334 5.6
2015-Jan-26 15:38 333 5.6
2015-Jan-26 15:23 302 5.6
2015-Jan-26 15:08 235 6.1
2015-Jan-26 14:53 056 6.1
2015-Jan-26 14:38 336 5.6
2015-Jan-26 14:23 222 5.6
2015-Jan-26 14:08 221 6.1
2015-Jan-26 13:53 219 6.7
2015-Jan-26 13:38 226 7.2
2015-Jan-26 13:23 229 8.3
2015-Jan-26 13:08 222 9.4
2015-Jan-26 12:53 235 0 gusting 3 10.0
2015-Jan-26 12:38 232 10.0
2015-Jan-26 12:23 179 8.9
2015-Jan-26 12:08 346 7.2
2015-Jan-26 11:53 278 6.7
2015-Jan-26 11:38 265 6.7
2015-Jan-26 11:24 267 6.7
2015-Jan-26 11:08 352 0 gusting 2 6.7
2015-Jan-26 10:52 228 6.7
2015-Jan-26 10:37 240 0 gusting 1 5.0
2015-Jan-26 10:22 240 4.4
2015-Jan-26 10:07 255 4.4
2015-Jan-26 09:52 213 3.9
2015-Jan-26 09:37 138 2.2
2015-Jan-26 09:22 206 2.2
2015-Jan-26 09:07 134 2.2
2015-Jan-26 08:52 191 0.6
2015-Jan-26 08:37 026 -0.0
2015-Jan-26 08:22 155 0.6
2015-Jan-26 08:07 284 -0.0
2015-Jan-26 07:52 122 -0.6
2015-Jan-26 07:37 353 -0.6
2015-Jan-26 07:22 349 -0.6
2015-Jan-26 07:07 091 -1.1
2015-Jan-26 06:52 355 -1.1
2015-Jan-26 05:37 311 0.6
2015-Jan-26 05:22 217 0.6
2015-Jan-26 05:07 132 0.6
2015-Jan-26 04:52 030 -0.0
2015-Jan-26 04:37 301 -0.0
2015-Jan-26 04:22 132 0.6
2015-Jan-26 04:07 333 0.6
2015-Jan-26 03:52 045 0.6
2015-Jan-26 03:37 142 1.1
2015-Jan-26 03:22 024 1.1
2015-Jan-26 03:06 122 1.7
2015-Jan-26 02:51 025 2.2
2015-Jan-26 02:36 109 1.1
2015-Jan-26 02:21 022 1.7
2015-Jan-26 02:06 046 1.7
2015-Jan-26 01:51 081 2.8
2015-Jan-26 01:36 013 2.2
2015-Jan-26 01:22 110 2.8
2015-Jan-26 01:06 044 0 gusting 1 3.3
2015-Jan-26 00:51 049 3.3
2015-Jan-26 00:36 113 3.3
2015-Jan-26 00:21 117 2.8
2015-Jan-26 00:06 094 3.3
2015-Jan-25 23:52 093 3.9
2015-Jan-25 23:36 044 0 gusting 1 3.9
2015-Jan-25 23:21 108 4.4
2015-Jan-25 23:06 099 5.0
2015-Jan-25 22:51 086 0 gusting 1 5.6
2015-Jan-25 22:36 115 5.6
2015-Jan-25 22:21 040 5.6
2015-Jan-25 22:06 115 0 gusting 3 5.6
2015-Jan-25 21:51 071 0 gusting 1 5.6
2015-Jan-25 21:36 101 5.6
2015-Jan-25 21:21 098 1 gusting 6 5.6
2015-Jan-25 21:06 104 2 gusting 4 5.6
2015-Jan-25 20:51 155 3 gusting 6 6.1
2015-Jan-25 20:36 225 7.8
2015-Jan-25 20:21 044 0 gusting 12 8.3
2015-Jan-25 20:06 004 4 gusting 9 8.3
2015-Jan-25 19:51 032 4 gusting 12 7.8
2015-Jan-25 19:36 024 2 gusting 10 7.8
2015-Jan-25 19:21 053 4 gusting 14 8.3
2015-Jan-25 19:06 029 5 gusting 18 8.3
2015-Jan-25 18:51 350 6 gusting 13 8.3
2015-Jan-25 18:36 058 4 gusting 13 7.8
2015-Jan-25 18:21 348 3 gusting 13 7.8
2015-Jan-25 18:06 358 6 gusting 10 7.8
2015-Jan-25 17:51 022 6 gusting 13 7.8
2015-Jan-25 17:36 328 3 gusting 12 7.8
2015-Jan-25 17:21 334 7 gusting 13 8.3
2015-Jan-25 17:06 341 5 gusting 21 8.3
2015-Jan-25 16:51 043 3 gusting 9 8.9
2015-Jan-25 16:36 020 6 gusting 19 8.9
2015-Jan-25 16:21 063 6 gusting 16 9.4
2015-Jan-25 16:06 343 2 gusting 15 9.4
2015-Jan-25 15:51 360 13 gusting 24 9.4
2015-Jan-25 15:36 341 6 gusting 16 9.4
2015-Jan-25 15:21 053 6 gusting 21 10.0
2015-Jan-25 15:06 277 9 gusting 23 9.4
2015-Jan-25 14:51 065 13 gusting 27 9.4
2015-Jan-25 14:36 038 13 gusting 27 10.0
2015-Jan-25 14:20 005 11 gusting 21 10.0
2015-Jan-25 14:05 346 7 gusting 22 9.4
2015-Jan-25 13:50 037 10 gusting 26 9.4
2015-Jan-25 13:35 003 11 gusting 19 10.0
2015-Jan-25 13:20 356 10 gusting 26 10.0
2015-Jan-25 13:05 044 7 gusting 23 10.0
2015-Jan-25 12:50 027 10 gusting 28 9.4
2015-Jan-25 12:35 006 8 gusting 30 9.4
2015-Jan-25 12:20 346 12 gusting 26 9.4
2015-Jan-25 12:05 008 14 gusting 33 9.4
2015-Jan-25 11:50 309 13 gusting 29 8.9
2015-Jan-25 11:35 329 15 gusting 36 8.9
2015-Jan-25 11:20 023 7 gusting 25 8.3
2015-Jan-25 11:05 029 13 gusting 39 8.3
2015-Jan-25 10:50 049 11 gusting 37 7.8
2015-Jan-25 10:35 019 9 gusting 26 7.8
2015-Jan-25 10:20 325 13 gusting 31 7.8
2015-Jan-25 10:05 072 15 gusting 34 7.8
2015-Jan-25 09:50 034 13 gusting 33 7.2
2015-Jan-25 09:35 307 15 gusting 39 7.2
2015-Jan-25 09:20 023 15 gusting 36 6.7
2015-Jan-25 09:05 359 8 gusting 27 6.1
2015-Jan-25 08:51 006 13 gusting 26 6.1
2015-Jan-25 08:35 332 10 gusting 33 6.1
2015-Jan-25 08:20 040 9 gusting 26 6.1
2015-Jan-25 08:05 322 12 gusting 25 5.6
2015-Jan-25 07:50 034 8 gusting 19 5.0
2015-Jan-25 07:35 332 15 gusting 28 5.0
2015-Jan-25 07:20 005 11 gusting 21 5.0
2015-Jan-25 07:05 029 10 gusting 21 4.4
2015-Jan-25 06:50 027 9 gusting 27 4.4
2015-Jan-25 06:35 339 6 gusting 26 4.4
2015-Jan-25 06:20 300 9 gusting 17 4.4
2015-Jan-25 06:05 015 11 gusting 18 4.4
2015-Jan-25 05:50 008 12 gusting 23 4.4
2015-Jan-25 05:35 068 13 gusting 32 4.4
2015-Jan-25 05:20 347 13 gusting 32 4.4
2015-Jan-25 05:04 336 16 gusting 25 4.4
2015-Jan-25 04:49 027 16 gusting 33 3.9
2015-Jan-25 04:34 027 11 gusting 29 3.9
2015-Jan-25 04:19 316 11 gusting 31 3.9
2015-Jan-25 04:04 012 8 gusting 27 3.9
2015-Jan-25 03:49 335 13 gusting 37 3.9
2015-Jan-25 03:34 050 13 gusting 37 3.9
2015-Jan-25 03:19 089 12 gusting 27 3.9
2015-Jan-25 03:04 030 9 gusting 30 3.9
2015-Jan-25 02:49 044 15 gusting 38 3.9
2015-Jan-25 02:34 058 11 gusting 33 3.9
2015-Jan-25 02:19 302 11 gusting 20 4.4
2015-Jan-25 02:04 346 13 gusting 23 4.4
2015-Jan-25 01:49 349 11 gusting 24 4.4
2015-Jan-25 01:34 352 6 gusting 17 5.0
2015-Jan-25 01:19 309 3 gusting 19 4.4
2015-Jan-25 01:04 004 5 gusting 12 4.4